Stevenson, Washington, United States (98648)
Lat: 45.70N, Lon: 121.88W
Wx Zone: WAZ023
Local Info
Past Weather Observations for Today

NOTE: This archive is for the closest National Weather Service station to Stevenson. Information may differ from the station used for current weather conditions.

Click here for Long-term Archive

Time Weather Temperature Dewpoint Humidity Pressure Winds Precip Visibility
22:53
Mostly Cloudy
54°F / 12°C 46°F / 8°C 77% 29.89 in
(1012 mb)
SW 11.5 mph
(SW 19 kph)
0.00 in
(0.00 mm)
10SM
21:53
Overcast
54°F / 12°C 46°F / 8°C 77% 29.89 in
(1012 mb)
SW 13.8 mph
(SW 22 kph)
- 10SM
20:53
Mostly Cloudy
55°F / 13°C 48°F / 9°C 77% 29.83 in
(1010 mb)
SW 10.4 mph
(SW 17 kph)
0.00 in
(0.00 mm)
10SM
19:53
Mostly Cloudy
Light Rain
55°F / 13°C 46°F / 8°C 72% 29.8 in
(1009 mb)
SW 16.1 mph
(SW 26 kph)
0.00 in
(0.00 mm)
10SM
18:53
Mostly Cloudy
57°F / 14°C 46°F / 8°C 67% 29.74 in
(1007 mb)
SW 20.7 mph
(SW 33 kph)
- 10SM
17:53
Overcast
57°F / 14°C 46°F / 8°C 67% 29.68 in
(1005 mb)
SW 25.3 mph
(SW 41 kph)
- 10SM
16:53
Overcast
61°F / 16°C 52°F / 11°C 72% 29.56 in
(1001 mb)
SW 24.2 mph
(SW 39 kph)
- 10SM
15:53
Overcast
61°F / 16°C 54°F / 12°C 77% 29.44 in
(997 mb)
S 19.6 mph
(S 32 kph)
0.02 in
(0.51 mm)
10SM
14:53
Overcast
64°F / 18°C 50°F / 10°C 60% 29.42 in
(996 mb)
SSE 17.3 mph
(SSE 28 kph)
0.00 in
(0.00 mm)
10SM
13:53
Mostly Cloudy
Light Rain
64°F / 18°C 52°F / 11°C 64% 29.42 in
(996 mb)
S 13.8 mph
(S 22 kph)
0.00 in
(0.00 mm)
10SM
13:17
Overcast
64°F / 18°C 48°F / 9°C 56% 29.42 in
(996 mb)
S 12.7 mph
(S 20 kph)
- 10SM
12:53
Overcast
59°F / 15°C 50°F / 10°C 72% 29.42 in
(996 mb)
ESE 11.5 mph
(ESE 19 kph)
0.00 in
(0.00 mm)
10SM
11:53
Overcast
57°F / 14°C 50°F / 10°C 77% 29.42 in
(996 mb)
E 19.6 mph
(E 32 kph)
0.00 in
(0.00 mm)
10SM
10:53
Overcast
Light Rain
61°F / 16°C 48°F / 9°C 63% 29.42 in
(996 mb)
E 19.6 mph
(E 32 kph)
0.00 in
(0.00 mm)
10SM
09:53
Overcast
57°F / 14°C 50°F / 10°C 77% 29.42 in
(996 mb)
E 21.9 mph
(E 35 kph)
- 10SM
08:53
Overcast
55°F / 13°C 50°F / 10°C 82% 29.44 in
(997 mb)
E 18.4 mph
(E 30 kph)
- 10SM
07:53
Partly Cloudy
54°F / 12°C 50°F / 10°C 88% 29.47 in
(998 mb)
E 12.7 mph
(E 20 kph)
0.01 in
(0.25 mm)
10SM
06:53
Overcast
Light Rain
54°F / 12°C 48°F / 9°C 82% 29.59 in
(1002 mb)
E 8.1 mph
(E 13 kph)
0.05 in
(1.27 mm)
4SM
05:53
Overcast
Light Rain
54°F / 12°C 48°F / 9°C 82% 29.62 in
(1003 mb)
ESE 9.2 mph
(ESE 15 kph)
0.00 in
(0.00 mm)
10SM
05:00
Overcast
54°F / 12°C 46°F / 8°C 77% 29.59 in
(1002 mb)
SW 16.1 mph
(SW 26 kph)
- 10SM
04:53
Mostly Cloudy
55°F / 13°C 46°F / 8°C 72% 29.59 in
(1002 mb)
SW 21.9 mph
(SW 35 kph)
- 10SM
03:53
Clear
55°F / 13°C 48°F / 9°C 77% 29.5 in
(999 mb)
E 23 mph
(E 37 kph)
- 10SM
02:53
Clear
57°F / 14°C 48°F / 9°C 72% 29.5 in
(999 mb)
E 21.9 mph
(E 35 kph)
- 10SM
01:53
Clear
57°F / 14°C 48°F / 9°C 72% 29.56 in
(1001 mb)
E 20.7 mph
(E 33 kph)
- 10SM
00:53
Clear
57°F / 14°C 48°F / 9°C 72% 29.62 in
(1003 mb)
E 18.4 mph
(E 30 kph)
- 10SM
Time Weather Temperature Dewpoint Humidity Pressure Winds Precip Visibility


Weather for websites

WeatherForYou.com, LLC is not responsible for any damages or problems caused by this service. Current weather conditions are obtained from the closest station including government and personal stations which may have varying degrees of accuracy. Weather forecasts are derived from the NOAA NDFD. Like all things, this site belongs to Jesus Christ... He just trusts me to maintain it. If you have any questions or comments email webmaster@weatherforyou.com

Copyright © 2014, WeatherForYou.com LLC. All rights reserved.